ON3FV Weather Reports


Display with metric or nautical units.
time (UTC)temp
F
wind
direction
speed
MPH
gust
MPH
rain 1hr
in
rain 24hr
in
rain mn
in
humidity
%
barometer
mb
20260905150627 72 0.0 0.0 0.00 0.00 0.00 65 1023.9
20260905150127 72 0.0 0.0 0.00 0.00 0.00 64 1024.0
20260905145625 72 0.0 0.0 0.00 0.00 0.00 64 1024.0
20260905145124 72 0.0 0.0 0.00 0.00 0.00 68 1023.7
20260905144623 72 0.0 0.0 0.00 0.00 0.00 68 1023.7
20260905144122 71 0.0 0.0 0.00 0.00 0.00 69 1023.7
20260905143621 71 0.0 0.0 0.00 0.00 0.00 69 1023.7
20260905143121 71 0.0 0.0 0.00 0.00 0.00 66 1023.7
20260905142619 71 0.0 0.0 0.00 0.00 0.00 66 1023.7
20260905142119 71 0.0 0.0 0.00 0.00 0.00 70 1023.7
20260905141618 71 0.0 0.0 0.00 0.00 0.00 70 1023.7
20260905141137 70 0.0 0.0 0.00 0.00 0.00 71 1023.6
20260905140615 70 0.0 0.0 0.00 0.00 0.00 71 1023.6
20260905140125 70 0.0 0.0 0.00 0.00 0.00 70 1023.7
20260905135613 70 0.0 0.0 0.00 0.00 0.00 70 1023.7
20260905135133 70 0.0 0.0 0.00 0.00 0.00 71 1023.7
20260905134611 70 0.0 0.0 0.00 0.00 0.00 71 1023.7
20260905134110 70 0.0 0.0 0.00 0.00 0.00 70 1023.9
20260905133609 70 0.0 0.0 0.00 0.00 0.00 70 1023.9
20260905133149 69 0.0 0.0 0.00 0.00 0.00 72 1023.7
20260905132608 69 0.0 0.0 0.00 0.00 0.00 72 1023.7
20260905132106 69 0.0 0.0 0.00 0.00 0.00 71 1023.6
20260905131607 69 0.0 0.0 0.00 0.00 0.00 71 1023.6
20260905131104 69 0.0 0.0 0.00 0.00 0.00 73 1023.5
20260905130624 69 0.0 0.0 0.00 0.00 0.00 73 1023.5
20260905125601 69 0.0 0.0 0.00 0.00 0.00 72 1023.6
20260905125101 69 0.0 0.0 0.00 0.00 0.00 71 1023.6
20260905124559 69 0.0 0.0 0.00 0.00 0.00 71 1023.6
20260905124059 69 0.0 0.0 0.00 0.00 0.00 74 1023.5
20260905123557 69 0.0 0.0 0.00 0.00 0.00 74 1023.5
20260905123057 68 0.0 0.0 0.00 0.00 0.00 74 1023.4
20260905122556 68 0.0 0.0 0.00 0.00 0.00 74 1023.4
20260905122054 68 0.0 0.0 0.00 0.00 0.00 73 1023.4
20260905121554 68 0.0 0.0 0.00 0.00 0.00 73 1023.4
20260905121052 68 0.0 0.0 0.00 0.00 0.00 75 1023.3
20260905120552 68 0.0 0.0 0.00 0.00 0.00 75 1023.3
20260905120051 68 0.0 0.0 0.00 0.00 0.00 76 1023.3
20260905115549 68 0.0 0.0 0.00 0.00 0.00 76 1023.3
20260905115049 68 0.0 0.0 0.00 0.00 0.00 76 1023.3
20260905114548 68 0.0 0.0 0.00 0.00 0.00 76 1023.3
20260905114046 68 0.0 0.0 0.00 0.00 0.00 76 1023.4
20260905113546 68 0.0 0.0 0.00 0.00 0.00 76 1023.4
20260905113045 68 0.0 0.0 0.00 0.00 0.00 77 1023.3
20260905112604 68 0.0 0.0 0.00 0.00 0.00 77 1023.3
20260905112043 67 0.0 0.0 0.00 0.00 0.00 78 1023.2
20260905111542 67 0.0 0.0 0.00 0.00 0.00 78 1023.2
20260905111041 67 0.0 0.0 0.00 0.00 0.00 78 1023.1
20260905110539 67 0.0 0.0 0.00 0.00 0.00 78 1023.1
20260905110039 66 0.0 0.0 0.00 0.00 0.00 77 1023.2
20260905105537 66 0.0 0.0 0.00 0.00 0.00 77 1023.2
20260905105037 67 0.0 0.0 0.00 0.00 0.00 77 1023.1
20260905104536 67 0.0 0.0 0.00 0.00 0.00 77 1023.1
20260905104035 67 0.0 0.0 0.00 0.00 0.00 79 1023.1
20260905103533 67 0.0 0.0 0.00 0.00 0.00 79 1023.0
20260905103033 67 0.0 0.0 0.00 0.00 0.00 79 1023.0
20260905102532 66 0.0 0.0 0.00 0.00 0.00 79 1022.9
20260905102031 66 0.0 0.0 0.00 0.00 0.00 79 1022.9
20260905101530 66 0.0 0.0 0.00 0.00 0.00 77 1022.8
20260905101028 66 0.0 0.0 0.00 0.00 0.00 77 1022.8
20260905100528 66 0.0 0.0 0.00 0.00 0.00 82 1022.7
20260905100026 66 0.0 0.0 0.00 0.00 0.00 82 1022.7
20260905095525 66 0.0 0.0 0.00 0.00 0.00 82 1022.6
20260905095024 66 0.0 0.0 0.00 0.00 0.00 82 1022.6
20260905094544 65 0.0 0.0 0.00 0.00 0.00 84 1022.5
20260905094022 65 0.0 0.0 0.00 0.00 0.00 84 1022.5
20260905093522 65 0.0 0.0 0.00 0.00 0.00 85 1022.5
20260905093021 65 0.0 0.0 0.00 0.00 0.00 85 1022.5
20260905092519 65 0.0 0.0 0.00 0.00 0.00 85 1022.5
20260905092019 65 0.0 0.0 0.00 0.00 0.00 85 1022.5
20260905091517 65 0.0 0.0 0.00 0.00 0.00 86 1022.4
20260905091027 65 0.0 0.0 0.00 0.00 0.00 86 1022.4
20260905090516 64 0.0 0.0 0.00 0.00 0.00 86 1022.2
20260905090035 64 0.0 0.0 0.00 0.00 0.00 86 1022.2
20260905085012 64 0.0 0.0 0.00 0.00 0.00 86 1022.1
20260905084013 64 0.0 0.0 0.00 0.00 0.00 87 1022.0
20260905083018 64 0.0 0.0 0.00 0.00 0.00 87 1021.9
20260905082017 63 0.0 0.0 0.00 0.00 0.00 88 1021.8
20260905081515 63 0.0 0.0 0.00 0.00 0.00 88 1021.8
20260905081016 63 0.0 0.0 0.00 0.00 0.00 88 1021.6
20260905080033 62 0.0 0.0 0.00 0.00 0.00 89 1021.6
20260905075513 62 0.0 0.0 0.00 0.00 0.00 89 1021.6
20260905075020 62 0.0 0.0 0.00 0.00 0.00 89 1021.6
20260905074459 62 0.0 0.0 0.00 0.00 0.00 89 1021.6
20260905073959 61 0.0 0.0 0.00 0.00 0.00 89 1021.4
20260905073457 61 0.0 0.0 0.00 0.00 0.00 89 1021.4
20260905072957 60 0.0 0.0 0.00 0.00 0.00 89 1021.4
20260905072455 60 0.0 0.0 0.00 0.00 0.00 89 1021.4
20260905071955 60 0.0 0.0 0.00 0.00 0.00 90 1021.3
20260905071453 60 0.0 0.0 0.00 0.00 0.00 90 1021.3
20260905070953 59 0.0 0.0 0.00 0.00 0.00 90 1021.0
20260905070451 59 0.0 0.0 0.00 0.00 0.00 90 1021.0
20260905070011 58 0.0 0.0 0.00 0.00 0.00 90 1020.9
20260905065449 58 0.0 0.0 0.00 0.00 0.00 90 1020.9
20260905064949 57 0.0 0.0 0.00 0.00 0.00 89 1020.9
20260905064447 57 0.0 0.0 0.00 0.00 0.00 89 1020.9
20260905063948 56 0.0 0.0 0.00 0.00 0.00 89 1020.9
20260905063445 56 0.0 0.0 0.00 0.00 0.00 89 1020.9
20260905062945 56 0.0 0.0 0.00 0.00 0.00 89 1020.8
20260905062444 56 0.0 0.0 0.00 0.00 0.00 89 1020.8
20260905062003 56 0.0 0.0 0.00 0.00 0.00 89 1020.8
20260905061442 56 0.0 0.0 0.00 0.00 0.00 89 1020.8
20260905060940 56 0.0 0.0 0.00 0.00 0.00 89 1020.6
20260905060440 56 0.0 0.0 0.00 0.00 0.00 89 1020.6
20260905055938 55 0.0 0.0 0.00 0.00 0.00 89 1020.5
20260905055437 55 0.0 0.0 0.00 0.00 0.00 89 1020.5
20260905054936 55 0.0 0.0 0.00 0.00 0.00 89 1020.4
20260905054436 55 0.0 0.0 0.00 0.00 0.00 89 1020.3
20260905053934 55 0.0 0.0 0.00 0.00 0.00 89 1020.3
20260905053433 55 0.0 0.0 0.00 0.00 0.00 89 1020.2
20260905052932 55 0.0 0.0 0.00 0.00 0.00 89 1020.2
20260905052452 55 0.0 0.0 0.00 0.00 0.00 89 1020.0
20260905051930 55 0.0 0.0 0.00 0.00 0.00 89 1020.0
20260905051430 55 0.0 0.0 0.00 0.00 0.00 89 1019.8
20260905050929 55 0.0 0.0 0.00 0.00 0.00 89 1019.8
20260905050428 55 0.0 0.0 0.00 0.00 0.00 89 1019.7
20260905045946 55 0.0 0.0 0.00 0.00 0.00 89 1019.7
20260905045426 55 0.0 0.0 0.00 0.00 0.00 89 1019.6
20260905044924 55 0.0 0.0 0.00 0.00 0.00 89 1019.6
20260905044424 55 0.0 0.0 0.00 0.00 0.00 88 1019.5
20260905043942 55 0.0 0.0 0.00 0.00 0.00 88 1019.4
20260905043422 55 0.0 0.0 0.00 0.00 0.00 88 1019.4
20260905042940 55 0.0 0.0 0.00 0.00 0.00 88 1019.4
20260905042440 55 0.0 0.0 0.00 0.00 0.00 88 1019.4
20260905041938 55 0.0 0.0 0.00 0.00 0.00 88 1019.3
20260905041418 55 0.0 0.0 0.00 0.00 0.00 88 1019.3
20260905040916 56 0.0 0.0 0.00 0.00 0.00 88 1019.2
20260905040436 56 0.0 0.0 0.00 0.00 0.00 88 1019.2
20260905035914 56 0.0 0.0 0.00 0.00 0.00 88 1019.0
20260905035434 56 0.0 0.0 0.00 0.00 0.00 88 1019.0
20260905034932 56 0.0 0.0 0.00 0.00 0.00 88 1019.0
20260905034412 56 0.0 0.0 0.00 0.00 0.00 88 1019.0
20260905033910 56 0.0 0.0 0.00 0.00 0.00 88 1019.0
20260905033410 56 0.0 0.0 0.00 0.00 0.00 88 1019.0
20260905032908 56 0.0 0.0 0.00 0.00 0.00 88 1018.9
20260905032408 56 0.0 0.0 0.00 0.00 0.00 88 1018.9
20260905031927 56 0.0 0.0 0.00 0.00 0.00 88 1018.9
20260905031405 56 0.0 0.0 0.00 0.00 0.00 88 1018.9
20260905030905 56 0.0 0.0 0.00 0.00 0.00 87 1018.7
20260905030403 56 0.0 0.0 0.00 0.00 0.00 87 1018.7
20260905025903 56 0.0 0.0 0.00 0.00 0.00 87 1018.6
20260905025402 56 0.0 0.0 0.00 0.00 0.00 87 1018.6
20260905024901 56 0.0 0.0 0.00 0.00 0.00 87 1018.6
20260905024359 56 0.0 0.0 0.00 0.00 0.00 87 1018.6
20260905023859 56 0.0 0.0 0.00 0.00 0.00 87 1018.6
20260905023358 56 0.0 0.0 0.00 0.00 0.00 87 1018.6
20260905022917 56 0.0 0.0 0.00 0.00 0.00 87 1018.5
20260905022415 56 0.0 0.0 0.00 0.00 0.00 87 1018.5
20260905021956 57 0.0 0.0 0.00 0.00 0.00 87 1018.4
20260905021354 57 0.0 0.0 0.00 0.00 0.00 87 1018.4
20260905020852 57 0.0 0.0 0.00 0.00 0.00 87 1018.5
20260905020451 57 0.0 0.0 0.00 0.00 0.00 87 1018.5
20260905015851 57 0.0 0.0 0.00 0.00 0.00 87 1018.5
20260905015349 57 0.0 0.0 0.00 0.00 0.00 86 1018.4
20260905014908 57 0.0 0.0 0.00 0.00 0.00 86 1018.4
20260905014347 57 0.0 0.0 0.00 0.00 0.00 86 1018.2
20260905013847 57 0.0 0.0 0.00 0.00 0.00 86 1018.2
20260905013345 57 0.0 0.0 0.00 0.00 0.00 86 1018.2
20260905012846 57 0.0 0.0 0.00 0.00 0.00 86 1018.2
20260905012344 58 0.0 0.0 0.00 0.00 0.00 86 1018.2
20260905011843 58 0.0 0.0 0.00 0.00 0.00 86 1018.2
20260905011341 58 0.0 0.0 0.00 0.00 0.00 86 1018.0
20260905010841 58 0.0 0.0 0.00 0.00 0.00 86 1018.0
20260905010339 58 0.0 0.0 0.00 0.00 0.00 86 1018.0
20260905005839 58 0.0 0.0 0.00 0.00 0.00 86 1018.0
20260905005357 58 0.0 0.0 0.00 0.00 0.00 86 1018.0
20260905004837 58 0.0 0.0 0.00 0.00 0.00 86 1018.0
20260905004335 59 0.0 0.0 0.00 0.00 0.00 86 1018.0
20260905003835 59 0.0 0.0 0.00 0.00 0.00 86 1018.0
20260905003333 59 0.0 0.0 0.00 0.00 0.00 86 1017.9
20260905002833 59 0.0 0.0 0.00 0.00 0.00 86 1017.9
20260905002332 60 0.0 0.0 0.00 0.00 0.00 86 1017.9
20260905001830 60 0.0 0.0 0.00 0.00 0.00 86 1017.9
20260905001330 60 0.0 0.0 0.00 0.00 0.00 86 1017.8
20260905000828 60 0.0 0.0 0.00 0.00 0.00 86 1017.8
20260905000328 60 0.0 0.0 0.00 0.00 0.00 86 1017.7
20260904235846 60 0.0 0.0 0.00 0.00 0.00 86 1017.7
20260904235326 61 0.0 0.0 0.00 0.00 0.00 85 1017.7
20260904234824 61 0.0 0.0 0.00 0.00 0.00 85 1017.7
20260904234344 61 0.0 0.0 0.00 0.00 0.00 86 1017.7
20260904233822 61 0.0 0.0 0.00 0.00 0.00 86 1017.7
20260904233322 62 0.0 0.0 0.00 0.00 0.00 86 1017.6
20260904232820 62 0.0 0.0 0.00 0.00 0.00 86 1017.6
20260904232319 62 0.0 0.0 0.00 0.00 0.00 86 1017.6
20260904231819 62 0.0 0.0 0.00 0.00 0.00 86 1017.6
20260904231338 62 0.0 0.0 0.00 0.00 0.00 86 1017.6
20260904230817 62 0.0 0.0 0.00 0.00 0.00 86 1017.6
20260904230315 63 0.0 0.0 0.00 0.00 0.00 87 1017.5
20260904225835 63 0.0 0.0 0.00 0.00 0.00 87 1017.5
20260904225313 63 0.0 0.0 0.00 0.00 0.00 87 1017.3
20260904224833 63 0.0 0.0 0.00 0.00 0.00 87 1017.3
20260904224311 64 0.0 0.0 0.00 0.00 0.00 87 1017.4
20260904223811 64 0.0 0.0 0.00 0.00 0.00 87 1017.4
20260904223309 64 0.0 0.0 0.00 0.00 0.00 87 1017.4
20260904222808 64 0.0 0.0 0.00 0.00 0.00 87 1017.3
20260904222308 64 0.0 0.0 0.00 0.00 0.00 87 1017.3
20260904221807 65 0.0 0.0 0.00 0.00 0.00 87 1017.1
20260904221305 65 0.0 0.0 0.00 0.00 0.00 87 1017.1
20260904220805 65 0.0 0.0 0.00 0.00 0.00 87 1017.0
20260904220303 65 0.0 0.0 0.00 0.00 0.00 87 1017.0
20260904215803 65 0.0 0.0 0.00 0.00 0.00 87 1017.0
20260904215305 65 0.0 0.0 0.00 0.00 0.00 87 1016.9
20260904214801 65 0.0 0.0 0.00 0.00 0.00 87 1016.9
20260904214301 65 0.0 0.0 0.00 0.00 0.00 87 1016.9
20260904213758 65 0.0 0.0 0.00 0.00 0.00 87 1016.9
20260904213258 66 0.0 0.0 0.00 0.00 0.00 87 1016.8
20260904212756 66 0.0 0.0 0.00 0.00 0.00 87 1016.8
20260904212256 66 0.0 0.0 0.00 0.00 0.00 87 1016.8
20260904211814 66 0.0 0.0 0.00 0.00 0.00 87 1016.8
20260904211314 66 0.0 0.0 0.00 0.00 0.00 87 1016.8
20260904210832 66 0.0 0.0 0.00 0.00 0.00 87 1016.8
20260904210252 66 0.0 0.0 0.00 0.00 0.00 87 1016.7
20260904205750 66 0.0 0.0 0.00 0.00 0.00 87 1016.7
20260904205250 66 0.0 0.0 0.00 0.00 0.00 87 1016.7
20260904204749 66 0.0 0.0 0.00 0.00 0.00 87 1016.7
20260904204247 66 0.0 0.0 0.00 0.00 0.00 87 1016.7
20260904203747 66 0.0 0.0 0.00 0.00 0.00 87 1016.7
20260904203245 66 0.0 0.0 0.00 0.00 0.00 87 1016.6
20260904202744 66 0.0 0.0 0.00 0.00 0.00 87 1016.6
20260904202244 66 0.0 0.0 0.00 0.00 0.00 87 1016.4
20260904201742 66 0.0 0.0 0.00 0.00 0.00 87 1016.4
20260904201242 67 0.0 0.0 0.00 0.00 0.00 87 1016.3
20260904200740 67 0.0 0.0 0.00 0.00 0.00 87 1016.3
20260904200240 67 0.0 0.0 0.00 0.00 0.00 87 1016.2
20260904195738 67 0.0 0.0 0.00 0.00 0.00 87 1016.2
20260904195238 67 0.0 0.0 0.00 0.00 0.00 87 1015.8
20260904194736 67 0.0 0.0 0.00 0.00 0.00 87 1015.8
20260904194235 67 0.0 0.0 0.00 0.00 0.00 87 1015.9
20260904193735 67 0.0 0.0 0.00 0.00 0.00 87 1015.9
20260904193244 67 0.0 0.0 0.00 0.00 0.00 87 1015.6
20260904192732 67 0.0 0.0 0.00 0.00 0.00 87 1015.6
20260904192252 67 0.0 0.0 0.00 0.00 0.00 87 1015.5
20260904191750 67 0.0 0.0 0.00 0.00 0.00 87 1015.5
20260904191230 67 0.0 0.0 0.00 0.00 0.00 87 1015.5
20260904190227 67 0.0 0.0 0.00 0.00 0.00 86 1015.3
20260904185727 67 0.0 0.0 0.00 0.00 0.00 86 1015.3
20260904185226 68 0.0 0.0 0.00 0.00 0.00 87 1015.3
20260904184724 68 0.0 0.0 0.00 0.00 0.00 87 1015.3
20260904184224 68 0.0 0.0 0.00 0.00 0.00 86 1015.4
20260904183742 68 0.0 0.0 0.00 0.00 0.00 86 1015.4
20260904183302 68 0.0 0.0 0.00 0.00 0.00 87 1015.1
20260904182720 68 0.0 0.0 0.00 0.00 0.00 87 1015.1
20260904182220 68 0.0 0.0 0.00 0.00 0.00 87 1015.0
20260904181738 68 0.0 0.0 0.00 0.00 0.00 87 1015.0
20260904181218 68 0.0 0.0 0.00 0.00 0.00 86 1014.7
20260904180737 68 0.0 0.0 0.00 0.00 0.00 86 1014.7
20260904180215 68 0.0 0.0 0.00 0.00 0.00 86 1014.8
20260904175715 68 0.0 0.0 0.00 0.00 0.00 86 1014.8
20260904175213 68 0.0 0.0 0.00 0.00 0.00 86 1014.7
20260904174713 68 0.0 0.0 0.00 0.00 0.00 86 1014.7
20260904174211 69 0.0 0.0 0.00 0.00 0.00 86 1014.5
20260904173711 69 0.0 0.0 0.00 0.00 0.00 86 1014.5
20260904173209 69 0.0 0.0 0.00 0.00 0.00 86 1014.5
20260904172728 69 0.0 0.0 0.00 0.00 0.00 86 1014.5
20260904172207 69 0.0 0.0 0.00 0.00 0.00 86 1014.6
20260904171727 69 0.0 0.0 0.00 0.00 0.00 86 1014.6
20260904171205 69 0.0 0.0 0.00 0.00 0.00 86 1014.5
20260904170705 69 0.0 0.0 0.00 0.00 0.00 86 1014.5
20260904170203 69 0.0 0.0 0.00 0.00 0.00 86 1014.3
20260904165703 69 0.0 0.0 0.00 0.00 0.00 86 1014.3
20260904165201 69 0.0 0.0 0.00 0.00 0.00 86 1014.1
20260904164721 69 0.0 0.0 0.00 0.00 0.00 86 1014.1
20260904164159 69 0.0 0.0 0.00 0.00 0.00 87 1014.1
20260904163658 69 0.0 0.0 0.00 0.00 0.00 87 1014.1
20260904163157 69 0.0 0.0 0.00 0.00 0.00 87 1014.0
20260904162717 69 0.0 0.0 0.00 0.00 0.00 87 1014.0
20260904162216 69 0.0 0.0 0.00 0.00 0.00 87 1014.0
20260904161655 69 0.0 0.0 0.00 0.00 0.00 87 1014.0
20260904161153 69 0.0 0.0 0.00 0.00 0.00 87 1014.0
20260904160653 69 0.0 0.0 0.00 0.00 0.00 87 1014.0
20260904160152 69 0.0 0.0 0.00 0.00 0.00 87 1014.0
20260904155650 69 0.0 0.0 0.00 0.00 0.00 87 1014.0
20260904155150 68 0.0 0.0 0.00 0.00 0.00 87 1014.1
20260904154708 68 0.0 0.0 0.00 0.00 0.00 87 1014.1
20260904154208 68 0.0 0.0 0.00 0.00 0.00 86 1014.3
20260904153646 68 0.0 0.0 0.00 0.00 0.00 86 1014.3
20260904153146 68 0.0 0.0 0.00 0.00 0.00 86 1014.2
20260904152704 68 0.0 0.0 0.00 0.00 0.00 86 1014.2
20260904152204 68 0.0 0.0 0.00 0.00 0.00 86 1014.1
20260904151702 68 0.0 0.0 0.00 0.00 0.00 86 1014.1
20260904151142 69 0.0 0.0 0.00 0.00 0.00 86 1014.2